Time,TemperatureF,DewpointF,PressureIn,WindDirection,WindDirectionDegrees,WindSpeedMPH,WindSpeedGustMPH,Humidity,HourlyPrecipIn,Conditions,Clouds,dailyrainin,SoftwareType,DateUTC
2013-12-09 00:22:00,-9.0,-13.0,30.03,West,264,5.0,10.0,81,0.00,,,0.00,,2013-12-09 06:22:00,
2013-12-09 00:42:00,-8.0,-13.0,30.03,West,274,7.0,10.0,79,0.00,,,0.00,,2013-12-09 06:42:00,
2013-12-09 00:52:00,-8.0,-13.0,30.03,WNW,287,6.0,12.0,78,0.00,,,0.00,,2013-12-09 06:52:00,
2013-12-09 01:11:00,-7.0,-12.0,30.02,West,262,7.0,11.0,78,0.00,,,0.00,,2013-12-09 07:11:00,
2013-12-09 01:22:00,-8.0,-13.0,30.02,West,263,6.0,8.0,78,0.00,,,0.00,,2013-12-09 07:22:00,
2013-12-09 01:42:00,-8.0,-13.0,30.02,WNW,283,5.0,9.0,79,0.00,,,0.00,,2013-12-09 07:42:00,
2013-12-09 01:52:00,-7.0,-12.0,30.01,NW,310,6.0,11.0,78,0.00,,,0.00,,2013-12-09 07:52:00,
2013-12-09 02:11:00,-7.0,-12.0,30.01,WNW,293,6.0,10.0,78,0.00,,,0.00,,2013-12-09 08:11:00,
2013-12-09 02:22:00,-6.0,-11.0,30.02,WNW,298,7.0,12.0,79,0.00,,,0.00,,2013-12-09 08:22:00,
2013-12-09 02:42:00,-6.0,-11.0,30.02,WNW,287,9.0,15.0,79,0.00,,,0.00,,2013-12-09 08:42:00,
2013-12-09 02:52:00,-6.0,-10.0,30.02,WNW,294,10.0,17.0,81,0.00,,,0.00,,2013-12-09 08:52:00,
2013-12-09 03:12:00,-5.0,-9.0,30.03,West,271,11.0,16.0,81,0.00,,,0.00,,2013-12-09 09:12:00,
2013-12-09 03:22:00,-6.0,-11.0,30.03,NW,322,9.0,17.0,80,0.00,,,0.00,,2013-12-09 09:22:00,
2013-12-09 03:43:00,-7.0,-12.0,30.03,NW,315,11.0,16.0,79,0.00,,,0.00,,2013-12-09 09:43:00,
2013-12-09 03:54:00,-7.0,-12.0,30.03,NW,315,11.0,16.0,79,0.00,,,0.00,,2013-12-09 09:54:00,
2013-12-09 04:13:00,-7.0,-12.0,30.03,NW,325,9.0,17.0,78,0.00,,,0.00,,2013-12-09 10:13:00,
2013-12-09 04:23:00,-7.0,-12.0,30.03,NW,319,7.0,14.0,77,0.00,,,0.00,,2013-12-09 10:23:00,
2013-12-09 04:43:00,-8.0,-13.0,30.02,WNW,297,9.0,15.0,77,0.00,,,0.00,,2013-12-09 10:43:00,
2013-12-09 04:52:00,-8.0,-13.0,30.02,WNW,297,9.0,15.0,77,0.00,,,0.00,,2013-12-09 10:52:00,
2013-12-09 05:12:00,-9.0,-14.0,30.02,NW,304,7.0,11.0,78,0.00,,,0.00,,2013-12-09 11:12:00,
2013-12-09 05:22:00,-10.0,-15.0,30.03,WSW,253,6.0,11.0,78,0.00,,,0.00,,2013-12-09 11:22:00,
2013-12-09 05:42:00,-10.0,-15.0,30.03,WNW,286,5.0,10.0,78,0.00,,,0.00,,2013-12-09 11:42:00,
2013-12-09 05:53:00,-11.0,-16.0,30.02,WNW,297,7.0,12.0,78,0.00,,,0.00,,2013-12-09 11:53:00,
2013-12-09 06:12:00,-11.0,-16.0,30.03,West,280,8.0,13.0,78,0.00,,,0.00,,2013-12-09 12:12:00,
2013-12-09 06:22:00,-11.0,-16.0,30.03,WNW,292,8.0,13.0,78,0.00,,,0.00,,2013-12-09 12:22:00,
2013-12-09 06:42:00,-12.0,-17.0,30.03,West,273,4.0,10.0,78,0.00,,,0.00,,2013-12-09 12:42:00,
2013-12-09 06:52:00,-12.0,-17.0,30.03,West,281,3.0,8.0,78,0.00,,,0.00,,2013-12-09 12:52:00,
2013-12-09 07:12:00,-12.0,-17.0,30.03,West,275,3.0,9.0,78,0.00,,,0.00,,2013-12-09 13:12:00,
2013-12-09 07:22:00,-12.0,-17.0,30.04,WNW,293,5.0,9.0,78,0.00,,,0.00,,2013-12-09 13:22:00,
2013-12-09 07:42:00,-12.0,-17.0,30.04,WNW,284,4.0,8.0,78,0.00,,,0.00,,2013-12-09 13:42:00,
2013-12-09 07:52:00,-12.0,-17.0,30.04,WNW,297,5.0,9.0,78,0.00,,,0.00,,2013-12-09 13:52:00,
2013-12-09 08:12:00,-12.0,-17.0,30.04,West,264,4.0,8.0,78,0.00,,,0.00,,2013-12-09 14:12:00,
2013-12-09 08:22:00,-12.0,-17.0,30.04,WSW,256,4.0,7.0,77,0.00,,,0.00,,2013-12-09 14:22:00,
2013-12-09 08:42:00,-14.0,-19.0,30.03,West,281,3.0,6.0,78,0.00,,,0.00,,2013-12-09 14:42:00,
2013-12-09 08:52:00,-13.0,-18.0,30.04,WSW,245,3.0,5.0,78,0.00,,,0.00,,2013-12-09 14:52:00,
2013-12-09 09:12:00,-14.0,-19.0,30.04,WSW,253,2.0,5.0,77,0.00,,,0.00,,2013-12-09 15:12:00,
2013-12-09 09:22:00,-14.0,-19.0,30.04,WSW,246,2.0,4.0,78,0.00,,,0.00,,2013-12-09 15:22:00,
2013-12-09 09:53:00,-12.0,-17.0,30.05,West,269,5.0,8.0,77,0.00,,,0.00,,2013-12-09 15:53:00,
2013-12-09 10:23:00,-11.0,-17.0,30.05,West,269,5.0,9.0,75,0.00,,,0.00,,2013-12-09 16:23:00,
2013-12-09 10:43:00,-9.0,-15.0,30.05,West,259,7.0,10.0,75,0.00,,,0.00,,2013-12-09 16:43:00,
2013-12-09 10:53:00,-8.0,-14.0,30.05,West,269,9.0,15.0,75,0.00,,,0.00,,2013-12-09 16:53:00,
2013-12-09 11:12:00,-9.0,-15.0,30.05,WNW,283,10.0,14.0,75,0.00,,,0.00,,2013-12-09 17:12:00,
2013-12-09 11:23:00,-9.0,-15.0,30.04,West,270,9.0,13.0,75,0.00,,,0.00,,2013-12-09 17:23:00,
2013-12-09 11:42:00,-8.0,-14.0,30.03,West,281,8.0,11.0,75,0.00,,,0.00,,2013-12-09 17:42:00,
2013-12-09 11:53:00,-8.0,-14.0,30.03,West,278,7.0,11.0,75,0.00,,,0.00,,2013-12-09 17:53:00,
2013-12-09 12:12:00,-7.0,-13.0,30.01,West,274,8.0,15.0,75,0.00,,,0.00,,2013-12-09 18:12:00,
2013-12-09 12:22:00,-7.0,-13.0,30.01,WSW,257,7.0,11.0,74,0.00,,,0.00,,2013-12-09 18:22:00,
2013-12-09 12:43:00,-6.0,-12.0,29.99,WSW,255,6.0,10.0,74,0.00,,,0.00,,2013-12-09 18:43:00,
2013-12-09 12:52:00,-6.0,-12.0,29.97,WSW,255,4.0,7.0,74,0.00,,,0.00,,2013-12-09 18:52:00,
2013-12-09 13:12:00,-5.0,-11.0,29.97,WSW,243,5.0,8.0,73,0.00,,,0.00,,2013-12-09 19:12:00,
2013-12-09 13:22:00,-5.0,-11.0,29.97,WSW,253,6.0,9.0,73,0.00,,,0.00,,2013-12-09 19:22:00,
2013-12-09 13:42:00,-4.0,-10.0,29.96,WSW,249,5.0,10.0,73,0.00,,,0.00,,2013-12-09 19:42:00,
2013-12-09 13:52:00,-4.0,-10.0,29.95,SW,231,5.0,9.0,73,0.00,,,0.00,,2013-12-09 19:52:00,
2013-12-09 14:11:00,-3.0,-9.0,29.96,SW,229,6.0,9.0,73,0.00,,,0.00,,2013-12-09 20:11:00,
2013-12-09 14:22:00,-3.0,-10.0,29.96,SSW,203,4.0,9.0,72,0.00,,,0.00,,2013-12-09 20:22:00,
2013-12-09 14:42:00,-3.0,-10.0,29.95,WSW,256,5.0,8.0,72,0.00,,,0.00,,2013-12-09 20:42:00,
2013-12-09 14:53:00,-2.0,-9.0,29.94,WSW,240,6.0,11.0,72,0.00,,,0.00,,2013-12-09 20:53:00,
2013-12-09 15:12:00,-3.0,-10.0,29.94,WSW,246,6.0,9.0,72,0.00,,,0.00,,2013-12-09 21:12:00,
2013-12-09 15:22:00,-3.0,-9.0,29.93,WSW,243,7.0,9.0,73,0.00,,,0.00,,2013-12-09 21:22:00,
2013-12-09 15:43:00,-3.0,-9.0,29.92,SSW,209,6.0,8.0,74,0.00,,,0.00,,2013-12-09 21:43:00,
2013-12-09 15:53:00,-3.0,-9.0,29.91,SSE,165,5.0,8.0,74,0.00,,,0.00,,2013-12-09 21:53:00,
2013-12-09 16:22:00,-5.0,-11.0,29.90,SSE,153,2.0,5.0,74,0.00,,,0.00,,2013-12-09 22:22:00,
2013-12-09 16:43:00,-5.0,-10.0,29.89,South,172,4.0,8.0,77,0.00,,,0.00,,2013-12-09 22:43:00,
2013-12-09 16:53:00,-6.0,-12.0,29.88,SE,138,2.0,3.0,76,0.00,,,0.00,,2013-12-09 22:53:00,
2013-12-09 17:12:00,-6.0,-11.0,29.90,South,188,4.0,7.0,78,0.00,,,0.00,,2013-12-09 23:12:00,
2013-12-09 17:22:00,-5.0,-10.0,29.89,SSW,203,1.0,8.0,77,0.00,,,0.00,,2013-12-09 23:22:00,
2013-12-09 17:43:00,-6.0,-11.0,29.88,South,173,1.0,6.0,78,0.00,,,0.00,,2013-12-09 23:43:00,
2013-12-09 17:53:00,-6.0,-11.0,29.89,SSW,198,4.0,8.0,79,0.00,,,0.00,,2013-12-09 23:53:00,
2013-12-09 18:12:00,-7.0,-12.0,29.87,SSE,148,1.0,4.0,78,0.00,,,0.00,,2013-12-10 00:12:00,
2013-12-09 18:22:00,-6.0,-10.0,29.85,SE,146,2.0,6.0,81,0.00,,,0.00,,2013-12-10 00:22:00,
2013-12-09 18:42:00,-5.0,-9.0,29.85,SSE,158,2.0,5.0,81,0.00,,,0.00,,2013-12-10 00:42:00,
2013-12-09 18:53:00,-5.0,-9.0,29.86,SSE,153,2.0,5.0,81,0.00,,,0.00,,2013-12-10 00:53:00,
2013-12-09 19:11:00,-4.0,-8.0,29.86,SE,139,2.0,5.0,81,0.00,,,0.00,,2013-12-10 01:11:00,
2013-12-09 19:22:00,-4.0,-8.0,29.85,SE,137,3.0,5.0,81,0.00,,,0.00,,2013-12-10 01:22:00,
2013-12-09 19:52:00,-4.0,-8.0,29.83,SE,128,4.0,7.0,83,0.00,,,0.00,,2013-12-10 01:52:00,
2013-12-09 20:12:00,-3.0,-7.0,29.83,SE,134,4.0,7.0,84,0.00,,,0.00,,2013-12-10 02:12:00,
2013-12-09 20:21:00,-3.0,-7.0,29.83,SE,134,4.0,7.0,84,0.00,,,0.00,,2013-12-10 02:21:00,
2013-12-09 20:42:00,-3.0,-7.0,29.83,SE,134,4.0,6.0,84,0.00,,,0.00,,2013-12-10 02:42:00,
2013-12-09 20:52:00,-3.0,-7.0,29.83,SSE,156,2.0,7.0,84,0.00,,,0.00,,2013-12-10 02:52:00,
2013-12-09 21:22:00,-2.0,-6.0,29.83,SSE,159,1.0,6.0,84,0.00,,,0.00,,2013-12-10 03:22:00,
2013-12-09 21:43:00,-2.0,-5.0,29.83,SE,136,1.0,3.0,85,0.00,,,0.00,,2013-12-10 03:43:00,
2013-12-09 21:53:00,-2.0,-5.0,29.83,SE,136,1.0,3.0,85,0.00,,,0.00,,2013-12-10 03:53:00,
2013-12-09 22:13:00,-2.0,-6.0,29.84,SSE,158,0.0,1.0,84,0.00,,,0.00,,2013-12-10 04:13:00,
2013-12-09 22:23:00,-2.0,-6.0,29.84,SSE,158,0.0,1.0,84,0.00,,,0.00,,2013-12-10 04:23:00,
2013-12-09 22:33:00,-2.0,-6.0,29.84,SSE,158,0.0,1.0,84,0.00,,,0.00,,2013-12-10 04:33:00,
2013-12-09 22:43:00,-2.0,-6.0,29.84,SSE,158,0.0,1.0,84,0.00,,,0.00,,2013-12-10 04:43:00,
2013-12-09 22:52:00,-2.0,-5.0,29.84,SSW,212,0.0,1.0,85,0.00,,,0.00,,2013-12-10 04:52:00,
2013-12-09 23:12:00,-3.0,-6.0,29.85,SSW,212,0.0,0.0,85,0.00,,,0.00,,2013-12-10 05:12:00,
2013-12-09 23:22:00,-3.0,-6.0,29.85,NNW,347,0.0,3.0,85,0.00,,,0.00,,2013-12-10 05:22:00,
2013-12-09 23:42:00,-3.0,-6.0,29.85,NNW,347,0.0,1.0,85,0.00,,,0.00,,2013-12-10 05:42:00,
2013-12-09 23:52:00,-4.0,-7.0,29.86,NNW,347,0.0,1.0,85,0.00,,,0.00,,2013-12-10 05:52:00,